FW1304 Weather Reports


Display with metric or nautical units.
time (UTC)temp
F
wind
direction
speed
MPH
gust
MPH
rain 1hr
in
rain 24hr
in
rain mn
in
humidity
%
barometer
mb
20260508151838 56 207 0.0 0.0 0.00 0.00 0.00 43 1004.5
20260508151319 55 225 0.0 1.0 0.00 0.00 0.00 42 1004.6
20260508150819 55 211 0.0 4.0 0.00 0.00 0.00 43 1004.6
20260508150316 55 225 0.0 4.0 0.00 0.00 0.00 42 1004.7
20260508145817 55 249 0.0 7.0 0.00 0.00 0.00 42 1004.8
20260508145323 54 213 0.0 7.0 0.00 0.00 0.00 44 1004.9
20260508144819 54 211 0.0 0.0 0.00 0.00 0.00 44 1004.8
20260508144316 54 219 0.0 1.0 0.00 0.00 0.00 43 1004.9
20260508143834 53 213 0.0 1.0 0.00 0.00 0.00 42 1005.0
20260508143322 53 229 0.0 0.0 0.00 0.00 0.00 44 1005.2
20260508142854 53 262 0.0 0.0 0.00 0.00 0.00 44 1005.2
20260508142320 52 252 0.0 0.0 0.00 0.00 0.00 46 1005.3
20260508141837 52 227 0.0 0.0 0.00 0.00 0.00 49 1005.0
20260508141340 51 307 0.0 0.0 0.00 0.00 0.00 47 1005.1
20260508140836 51 227 0.0 0.0 0.00 0.00 0.00 49 1005.1
20260508140323 50 203 0.0 0.0 0.00 0.00 0.00 48 1005.2
20260508135825 50 232 0.0 0.0 0.00 0.00 0.00 47 1005.3
20260508135342 50 249 0.0 0.0 0.00 0.00 0.00 48 1005.3
20260508134829 50 213 0.0 0.0 0.00 0.00 0.00 49 1005.4
20260508134348 50 221 0.0 0.0 0.00 0.00 0.00 50 1005.5
20260508133824 49 222 0.0 0.0 0.00 0.00 0.00 50 1005.6
20260508133340 49 222 0.0 0.0 0.00 0.00 0.00 50 1005.5
20260508132814 49 240 0.0 0.0 0.00 0.00 0.00 51 1005.5
20260508132351 49 219 0.0 0.0 0.00 0.00 0.00 52 1005.5
20260508131826 48 219 0.0 0.0 0.00 0.00 0.00 51 1005.6
20260508131323 48 207 0.0 0.0 0.00 0.00 0.00 53 1005.5
20260508130840 47 203 0.0 0.0 0.00 0.00 0.00 54 1005.6
20260508130327 47 244 0.0 0.0 0.00 0.00 0.00 59 1005.7
20260508125853 46 244 0.0 0.0 0.00 0.00 0.00 60 1005.7
20260508125317 46 244 0.0 0.0 0.00 0.00 0.00 66 1005.7
20260508124854 45 244 0.0 0.0 0.00 0.00 0.00 69 1005.7
20260508124334 44 244 0.0 0.0 0.00 0.00 0.00 70 1005.7
20260508123830 43 244 0.0 0.0 0.00 0.00 0.00 74 1005.7
20260508123315 43 244 0.0 0.0 0.00 0.00 0.00 76 1005.7
20260508122829 42 244 0.0 0.0 0.00 0.00 0.00 77 1005.7
20260508122316 41 244 0.0 0.0 0.00 0.00 0.00 77 1005.6
20260508121827 41 244 0.0 0.0 0.00 0.00 0.00 77 1005.6
20260508121331 40 244 0.0 0.0 0.00 0.00 0.00 76 1005.6
20260508120818 40 244 0.0 0.0 0.00 0.00 0.00 74 1005.5
20260508120334 40 244 0.0 0.0 0.00 0.00 0.00 74 1005.5
20260508115839 39 244 0.0 0.0 0.00 0.00 0.00 74 1005.5
20260508115327 39 244 0.0 0.0 0.00 0.00 0.00 72 1005.5
20260508114824 39 244 0.0 0.0 0.00 0.00 0.00 71 1005.5
20260508114327 39 244 0.0 0.0 0.00 0.00 0.00 70 1005.5
20260508113831 39 244 0.0 0.0 0.00 0.00 0.00 68 1005.5
20260508113327 39 244 0.0 0.0 0.00 0.00 0.00 68 1005.4
20260508112824 39 244 0.0 0.0 0.00 0.00 0.00 68 1005.4
20260508112341 39 244 0.0 0.0 0.00 0.00 0.00 68 1005.3
20260508111828 39 244 0.0 0.0 0.00 0.00 0.00 68 1005.3
20260508111401 39 244 0.0 0.0 0.00 0.00 0.00 68 1005.3
20260508110826 40 244 0.0 0.0 0.00 0.00 0.00 68 1005.4
20260508110343 40 244 0.0 0.0 0.00 0.00 0.00 67 1005.3
20260508105825 40 244 0.0 0.0 0.00 0.00 0.00 67 1005.4
20260508105332 40 244 0.0 0.0 0.00 0.00 0.00 68 1005.4
20260508104829 41 244 0.0 0.0 0.00 0.00 0.00 68 1005.4
20260508104321 41 244 0.0 0.0 0.00 0.00 0.00 64 1005.4
20260508103838 41 244 0.0 0.0 0.00 0.00 0.00 62 1005.4
20260508103325 41 244 0.0 0.0 0.00 0.00 0.00 60 1005.4
20260508102827 41 244 0.0 0.0 0.00 0.00 0.00 58 1005.5
20260508102323 42 244 0.0 0.0 0.00 0.00 0.00 57 1005.5
20260508101831 42 244 0.0 0.0 0.00 0.00 0.00 57 1005.5
20260508101402 42 244 0.0 0.0 0.00 0.00 0.00 57 1005.5
20260508100849 42 244 0.0 0.0 0.00 0.00 0.00 57 1005.5
20260508100324 42 244 0.0 0.0 0.00 0.00 0.00 57 1005.5
20260508095847 42 244 0.0 0.0 0.00 0.00 0.00 56 1005.5
20260508095322 42 244 0.0 0.0 0.00 0.00 0.00 56 1005.5
20260508094859 43 244 0.0 0.0 0.00 0.00 0.00 56 1005.5
20260508094342 43 242 0.0 0.0 0.00 0.00 0.00 56 1005.5
20260508093829 43 242 0.0 0.0 0.00 0.00 0.00 56 1005.5
20260508093347 43 246 0.0 0.0 0.00 0.00 0.00 56 1005.5
20260508092819 43 240 0.0 0.0 0.00 0.00 0.00 57 1005.5
20260508092316 43 236 0.0 0.0 0.00 0.00 0.00 58 1005.5
20260508091832 43 233 0.0 0.0 0.00 0.00 0.00 59 1005.5
20260508091336 43 224 0.0 0.0 0.00 0.00 0.00 60 1005.4
20260508090822 42 229 0.0 0.0 0.00 0.00 0.00 60 1005.5
20260508090319 42 234 0.0 0.0 0.00 0.00 0.00 60 1005.5
20260508085821 42 237 0.0 0.0 0.00 0.00 0.00 60 1005.4
20260508085337 42 237 0.0 0.0 0.00 0.00 0.00 60 1005.5
20260508084825 42 237 0.0 0.0 0.00 0.00 0.00 60 1005.5
20260508084328 42 238 0.0 0.0 0.00 0.00 0.00 60 1005.5
20260508083845 43 236 0.0 0.0 0.00 0.00 0.00 60 1005.5
20260508083400 43 235 0.0 0.0 0.00 0.00 0.00 60 1005.5
20260508082823 43 234 0.0 0.0 0.00 0.00 0.00 61 1005.5
20260508082359 43 234 0.0 0.0 0.00 0.00 0.00 62 1005.5
20260508081841 43 236 0.0 0.0 0.00 0.00 0.00 63 1005.5
20260508081323 42 221 0.0 0.0 0.00 0.00 0.00 64 1005.6
20260508080819 42 224 0.0 0.0 0.00 0.00 0.00 66 1005.6
20260508080327 42 225 0.0 0.0 0.00 0.00 0.00 67 1005.6
20260508075834 42 220 0.0 0.0 0.00 0.00 0.00 69 1005.7
20260508075323 41 215 0.0 0.0 0.00 0.00 0.00 71 1005.7
20260508074839 41 213 0.0 0.0 0.00 0.00 0.00 74 1005.7
20260508074313 41 213 0.0 0.0 0.00 0.00 0.00 76 1005.7
20260508073830 41 214 0.0 0.0 0.00 0.00 0.00 77 1005.7
20260508073325 41 213 0.0 0.0 0.00 0.00 0.00 76 1005.7
20260508072828 41 213 0.0 0.0 0.00 0.00 0.00 77 1005.7
20260508072315 41 213 0.0 0.0 0.00 0.00 0.00 77 1005.7
20260508071831 42 213 0.0 0.0 0.00 0.00 0.00 76 1005.8
20260508071315 42 213 0.0 0.0 0.00 0.00 0.00 76 1005.8
20260508070822 42 213 0.0 0.0 0.00 0.00 0.00 75 1005.8
20260508070318 42 213 0.0 0.0 0.00 0.00 0.00 73 1005.9
20260508065822 42 213 0.0 0.0 0.00 0.00 0.00 73 1005.9
20260508065318 42 213 0.0 0.0 0.00 0.00 0.00 71 1005.8
20260508064825 42 213 0.0 0.0 0.00 0.00 0.00 72 1005.8
20260508064317 43 213 0.0 0.0 0.00 0.00 0.00 72 1005.9
20260508063813 43 213 0.0 0.0 0.00 0.00 0.00 71 1005.9
20260508063350 43 213 0.0 0.0 0.00 0.00 0.00 71 1005.9
20260508062831 43 213 0.0 0.0 0.00 0.00 0.00 70 1006.0
20260508062320 43 214 0.0 0.0 0.00 0.00 0.00 69 1006.0
20260508061815 43 213 0.0 0.0 0.00 0.00 0.00 67 1006.1
20260508061317 44 214 0.0 0.0 0.00 0.00 0.00 68 1006.1
20260508060833 44 214 0.0 0.0 0.00 0.00 0.00 68 1006.1
20260508060322 44 213 0.0 0.0 0.00 0.00 0.00 66 1006.2
20260508055819 44 214 0.0 0.0 0.00 0.00 0.00 63 1006.2
20260508055315 44 214 0.0 0.0 0.00 0.00 0.00 60 1006.2
20260508054823 44 214 0.0 0.0 0.00 0.00 0.00 58 1006.3
20260508054324 45 214 0.0 0.0 0.00 0.00 0.00 57 1006.4
20260508053820 45 214 0.0 0.0 0.00 0.00 0.00 56 1006.4
20260508053328 45 214 0.0 0.0 0.00 0.00 0.00 55 1006.4
20260508052839 45 214 0.0 0.0 0.00 0.00 0.00 56 1006.4
20260508052326 46 214 0.0 0.0 0.00 0.00 0.00 55 1006.5
20260508051843 46 213 0.0 0.0 0.00 0.00 0.00 54 1006.5
20260508051326 46 214 0.0 0.0 0.00 0.00 0.00 52 1006.5
20260508050827 46 214 0.0 0.0 0.00 0.00 0.00 52 1006.4
20260508050323 46 213 0.0 0.0 0.00 0.00 0.00 52 1006.5
20260508045818 46 215 0.0 0.0 0.00 0.00 0.00 52 1006.5
20260508045334 46 215 0.0 0.0 0.00 0.00 0.00 52 1006.6
20260508044818 46 215 0.0 0.0 0.00 0.00 0.00 53 1006.6
20260508044344 46 215 0.0 0.0 0.00 0.00 0.00 54 1006.5
20260508043832 46 215 0.0 0.0 0.00 0.00 0.00 55 1006.6
20260508043328 46 215 0.0 0.0 0.00 0.00 0.00 56 1006.6
20260508042832 46 215 0.0 0.0 0.00 0.00 0.00 55 1006.7
20260508042320 47 215 0.0 0.0 0.00 0.00 0.00 55 1006.7
20260508041836 47 217 0.0 0.0 0.00 0.00 0.00 54 1006.7
20260508041320 47 217 0.0 0.0 0.00 0.00 0.00 52 1006.7
20260508040836 48 217 0.0 0.0 0.00 0.00 0.00 49 1006.7
20260508040353 48 217 0.0 0.0 0.00 0.00 0.00 48 1006.8
20260508035834 48 221 0.0 0.0 0.00 0.00 0.00 48 1006.8
20260508035322 48 221 0.0 0.0 0.00 0.00 0.00 48 1006.8
20260508034838 48 222 0.0 0.0 0.00 0.00 0.00 48 1006.9
20260508034338 48 222 0.0 0.0 0.00 0.00 0.00 49 1006.9
20260508033834 49 222 0.0 0.0 0.00 0.00 0.00 50 1007.0
20260508033321 49 222 0.0 0.0 0.00 0.00 0.00 48 1007.0
20260508032817 49 222 0.0 0.0 0.00 0.00 0.00 46 1007.0
20260508032351 50 223 0.0 0.0 0.00 0.00 0.00 45 1007.0
20260508031825 50 226 0.0 0.0 0.00 0.00 0.00 44 1007.0
20260508031329 50 228 0.0 0.0 0.00 0.00 0.00 42 1007.0
20260508030816 51 236 0.0 0.0 0.00 0.00 0.00 41 1007.0
20260508030332 51 236 0.0 0.0 0.00 0.00 0.00 40 1007.0
20260508025815 51 237 0.0 0.0 0.00 0.00 0.00 39 1007.1
20260508025331 51 238 0.0 0.0 0.00 0.00 0.00 38 1007.0
20260508024819 52 242 0.0 0.0 0.00 0.00 0.00 38 1007.1
20260508024322 52 242 0.0 0.0 0.00 0.00 0.00 37 1007.0
20260508023839 52 242 0.0 0.0 0.00 0.00 0.00 37 1007.0
20260508023326 52 244 0.0 0.0 0.00 0.00 0.00 37 1007.0
20260508022859 52 246 0.0 0.0 0.00 0.00 0.00 37 1006.8
20260508022342 52 248 0.0 0.0 0.00 0.00 0.00 38 1006.8
20260508021817 53 251 0.0 0.0 0.00 0.00 0.00 40 1006.8
20260508021340 53 275 0.0 0.0 0.00 0.00 0.00 36 1006.8
20260508020835 53 275 0.0 0.0 0.00 0.00 0.00 36 1006.8
20260508020323 54 275 0.0 0.0 0.00 0.00 0.00 37 1006.7
20260508015854 54 275 0.0 0.0 0.00 0.00 0.00 36 1006.7
20260508015320 55 275 0.0 0.0 0.00 0.00 0.00 35 1006.6
20260508014836 55 275 0.0 0.0 0.00 0.00 0.00 34 1006.6
20260508014318 55 276 0.0 0.0 0.00 0.00 0.00 33 1006.6
20260508013837 55 279 0.0 0.0 0.00 0.00 0.00 33 1006.6
20260508013323 56 284 0.0 0.0 0.00 0.00 0.00 32 1006.5
20260508012819 56 285 0.0 0.0 0.00 0.00 0.00 32 1006.5
20260508012335 56 280 0.0 0.0 0.00 0.00 0.00 32 1006.5
20260508011831 57 282 0.0 0.0 0.00 0.00 0.00 31 1006.5
20260508011334 57 296 0.0 0.0 0.00 0.00 0.00 31 1006.5
20260508010838 57 289 0.0 2.0 0.00 0.00 0.00 30 1006.4
20260508010313 57 329 0.0 2.0 0.00 0.00 0.00 30 1006.4
20260508005815 58 294 0.0 4.0 0.00 0.00 0.00 30 1006.4
20260508005322 58 286 0.0 4.0 0.00 0.00 0.00 30 1006.4
20260508004819 58 333 0.0 1.0 0.00 0.00 0.00 30 1006.3
20260508004320 58 292 0.0 1.0 0.00 0.00 0.00 30 1006.4
20260508003837 58 294 0.0 0.0 0.00 0.00 0.00 30 1006.4
20260508003325 58 283 0.0 0.0 0.00 0.00 0.00 30 1006.3
20260508002827 58 309 0.0 0.0 0.00 0.00 0.00 30 1006.3
20260508002344 58 331 0.0 0.0 0.00 0.00 0.00 30 1006.4
20260508001819 58 311 0.0 0.0 0.00 0.00 0.00 30 1006.4
20260508001321 58 275 0.0 1.0 0.00 0.00 0.00 30 1006.4
20260508000829 58 269 0.0 1.0 0.00 0.00 0.00 30 1006.5
20260508000327 58 317 0.0 2.0 0.00 0.00 0.00 30 1006.4
20260507235823 58 303 0.0 2.0 0.00 0.00 0.00 29 1006.5
20260507235339 58 271 0.0 2.0 0.00 0.00 0.00 28 1006.5
20260507234826 58 268 0.0 6.0 0.00 0.00 0.00 30 1006.5
20260507234346 58 250 0.0 6.0 0.00 0.00 0.00 29 1006.5
20260507233841 58 241 0.0 2.0 0.00 0.00 0.00 29 1006.6
20260507233328 59 296 0.0 2.0 0.00 0.00 0.00 29 1006.6
20260507232900 58 303 0.0 5.0 0.00 0.00 0.00 29 1006.7
20260507232326 59 228 0.0 5.0 0.00 0.00 0.00 28 1006.7
20260507231813 59 264 0.0 1.0 0.00 0.00 0.00 29 1006.7
20260507231343 59 259 0.0 5.0 0.00 0.00 0.00 28 1006.7
20260507230830 59 279 1.0 5.0 0.00 0.00 0.00 28 1006.8
20260507230347 59 330 0.0 4.0 0.00 0.00 0.00 28 1006.8
20260507225821 59 287 0.0 0.0 0.00 0.00 0.00 30 1006.8
20260507225319 58 255 0.0 0.0 0.00 0.00 0.00 29 1006.8
20260507224826 58 306 0.0 2.0 0.00 0.00 0.00 28 1006.9
20260507224337 58 298 0.0 2.0 0.00 0.00 0.00 29 1007.0
20260507223825 58 275 0.0 4.0 0.00 0.00 0.00 28 1007.0
20260507223319 59 280 0.0 4.0 0.00 0.00 0.00 28 1007.1
20260507222817 58 244 0.0 4.0 0.00 0.00 0.00 28 1007.0
20260507222324 59 285 0.0 2.0 0.00 0.00 0.00 28 1007.0
20260507221822 59 256 0.0 2.0 0.00 0.00 0.00 29 1007.0
20260507221318 58 240 0.0 2.0 0.00 0.00 0.00 28 1007.0
20260507220834 58 276 0.0 4.0 0.00 0.00 0.00 29 1007.1
20260507220321 59 239 1.0 5.0 0.00 0.00 0.00 28 1007.1
20260507215829 59 257 1.0 4.0 0.00 0.00 0.00 27 1007.2
20260507215315 59 247 0.0 4.0 0.00 0.00 0.00 28 1007.3
20260507214832 59 301 0.0 2.0 0.00 0.00 0.00 27 1007.3
20260507214336 59 256 0.0 2.0 0.00 0.00 0.00 28 1007.3
20260507213822 59 242 0.0 2.0 0.00 0.00 0.00 28 1007.3
20260507213318 59 309 0.0 5.0 0.00 0.00 0.00 28 1007.4
20260507212820 59 261 1.0 5.0 0.00 0.00 0.00 26 1007.4
20260507212336 59 294 1.0 5.0 0.00 0.00 0.00 27 1007.3
20260507211824 59 265 1.0 5.0 0.00 0.00 0.00 26 1007.3
20260507211327 58 231 0.0 4.0 0.00 0.00 0.00 27 1007.4
20260507210815 59 278 0.0 2.0 0.00 0.00 0.00 27 1007.4
20260507210331 58 224 0.0 0.0 0.00 0.00 0.00 28 1007.4
20260507205833 58 233 0.0 1.0 0.00 0.00 0.00 26 1007.5
20260507205330 58 247 0.0 4.0 0.00 0.00 0.00 26 1007.6
20260507204818 58 257 0.0 4.0 0.00 0.00 0.00 27 1007.7
20260507204317 58 267 0.0 4.0 0.00 0.00 0.00 27 1007.7
20260507203833 57 286 1.0 4.0 0.00 0.00 0.00 28 1007.8
20260507203320 57 279 0.0 4.0 0.00 0.00 0.00 28 1007.9
20260507202823 57 319 0.0 2.0 0.00 0.00 0.00 28 1008.0
20260507202339 56 273 0.0 2.0 0.00 0.00 0.00 29 1008.0
20260507201836 56 284 0.0 2.0 0.00 0.00 0.00 27 1008.0
20260507201338 57 221 0.0 2.0 0.00 0.00 0.00 28 1008.1
20260507200824 57 297 0.0 1.0 0.00 0.00 0.00 28 1008.2
20260507200322 56 47 0.0 1.0 0.00 0.00 0.00 29 1008.2
20260507195825 57 307 0.0 1.0 0.00 0.00 0.00 28 1008.3
20260507195342 57 257 0.0 2.0 0.00 0.00 0.00 29 1008.4
20260507194829 57 256 0.0 2.0 0.00 0.00 0.00 29 1008.4
20260507194324 56 254 0.0 4.0 0.00 0.00 0.00 28 1008.4
20260507193821 56 337 0.0 4.0 0.00 0.00 0.00 28 1008.5
20260507193328 56 273 1.0 4.0 0.00 0.00 0.00 28 1008.5
20260507192902 56 314 0.0 4.0 0.00 0.00 0.00 29 1008.6
20260507192344 56 296 0.0 4.0 0.00 0.00 0.00 29 1008.6
20260507191840 56 303 0.0 0.0 0.00 0.00 0.00 31 1008.5
20260507191323 55 32 0.0 0.0 0.00 0.00 0.00 29 1008.6
20260507190820 55 355 0.0 0.0 0.00 0.00 0.00 28 1008.6
20260507190328 55 274 0.0 0.0 0.00 0.00 0.00 31 1008.6
20260507185838 55 58 0.0 1.0 0.00 0.00 0.00 29 1008.6
20260507185326 55 297 0.0 1.0 0.00 0.00 0.00 29 1008.7
20260507184823 55 297 0.0 5.0 0.00 0.00 0.00 29 1008.7
20260507184324 55 277 0.0 5.0 0.00 0.00 0.00 30 1008.7
20260507183833 55 292 0.0 4.0 0.00 0.00 0.00 28 1008.6
20260507183329 55 186 0.0 4.0 0.00 0.00 0.00 30 1008.7
20260507182830 54 205 0.0 4.0 0.00 0.00 0.00 32 1008.8
20260507182317 54 250 0.0 4.0 0.00 0.00 0.00 31 1008.9
20260507181814 54 294 0.0 0.0 0.00 0.00 0.00 31 1009.0
20260507181318 54 38 327.0 327.0 0.00 0.00 0.00 30 1008.9
20260507180836 54 346 0.0 5.0 0.00 0.00 0.00 31 1009.0
20260507180324 53 290 0.0 5.0 0.00 0.00 0.00 30 1009.0
20260507175826 53 239 0.0 2.0 0.00 0.00 0.00 31 1009.1
20260507175323 53 274 0.0 2.0 0.00 0.00 0.00 30 1009.2
20260507174827 53 292 0.0 1.0 0.00 0.00 0.00 31 1009.2
20260507174330 53 269 0.0 1.0 0.00 0.00 0.00 32 1009.3
20260507173846 53 41 0.0 2.0 0.00 0.00 0.00 31 1009.4
20260507173320 53 338 0.0 2.0 0.00 0.00 0.00 30 1009.5
20260507172816 53 275 0.0 4.0 0.00 0.00 0.00 31 1009.5
20260507172401 53 252 0.0 4.0 0.00 0.00 0.00 32 1009.6
20260507171828 53 204 0.0 2.0 0.00 0.00 0.00 31 1009.6
20260507171333 52 187 0.0 0.0 0.00 0.00 0.00 32 1009.6
20260507170820 52 253 0.0 1.0 0.00 0.00 0.00 33 1009.7
20260507170317 52 258 0.0 1.0 0.00 0.00 0.00 31 1009.7
20260507165819 52 259 0.0 0.0 0.00 0.00 0.00 34 1009.7
20260507165336 52 210 0.0 0.0 0.00 0.00 0.00 33 1009.8
20260507164823 51 256 0.0 0.0 0.00 0.00 0.00 34 1009.8
20260507164347 51 254 0.0 0.0 0.00 0.00 0.00 32 1009.9
20260507163823 51 318 0.0 0.0 0.00 0.00 0.00 33 1009.9
20260507163323 51 5 0.0 0.0 0.00 0.00 0.00 33 1009.9
20260507162836 51 248 0.0 0.0 0.00 0.00 0.00 34 1010.0
20260507162320 51 297 0.0 0.0 0.00 0.00 0.00 33 1010.1
20260507161837 51 348 0.0 0.0 0.00 0.00 0.00 34 1010.1
20260507161318 51 5 0.0 0.0 0.00 0.00 0.00 37 1010.2
20260507160826 50 342 0.0 0.0 0.00 0.00 0.00 34 1010.2
20260507160323 50 92 0.0 0.0 0.00 0.00 0.00 34 1010.3
20260507155825 50 5 0.0 0.0 0.00 0.00 0.00 37 1010.4
20260507155314 50 276 0.0 0.0 0.00 0.00 0.00 35 1010.3
20260507154830 50 207 0.0 0.0 0.00 0.00 0.00 40 1010.3
20260507154313 49 254 0.0 0.0 0.00 0.00 0.00 40 1010.3
20260507153822 49 259 0.0 4.0 0.00 0.00 0.00 39 1010.3
20260507153318 49 236 0.0 0.0 0.00 0.00 0.00 41 1010.3
20260507152821 49 261 0.0 0.0 0.00 0.00 0.00 41 1010.3
20260507152337 49 192 0.0 0.0 0.00 0.00 0.00 45 1010.3